This is the latest recevied weather packets stored in our database for station/object K7FRY. If no packets are shown the sender has not sent any weather packets the latest 10 day(s).
| Time | Temp. | Humidity | Pressure | Rain* | Wind** | Luminosity | Snow |
|---|---|---|---|---|---|---|---|
| 1777513545 | 26.11° C | 17% | 1013.6 hPa | 0 mm | - | 7 W/m² | - |
| 1777513241 | 26.11° C | 17% | 1013.6 hPa | 0 mm | - | 10 W/m² | - |
| 1777512937 | 26.11° C | 17% | 1013.6 hPa | 0 mm | - | 16 W/m² | - |
| 1777512634 | 26.11° C | 17% | 1013.7 hPa | 0 mm | - | 15 W/m² | - |
| 1777512331 | 26.11° C | 16% | 1013.5 hPa | 0 mm | - | 15 W/m² | - |
| 1777512027 | 26.11° C | 16% | 1013.6 hPa | 0 mm | - | 23 W/m² | - |
| 1777511726 | 26.67° C | 15% | 1014 hPa | 0 mm | - | 32 W/m² | - |
| 1777511423 | 26.67° C | 15% | 1013.8 hPa | 0 mm | - | 38 W/m² | - |
| 1777511120 | 26.67° C | 15% | 1014.1 hPa | 0 mm | - | 48 W/m² | - |
| 1777510815 | 26.67° C | 15% | 1013.8 hPa | 0 mm | - | 49 W/m² | - |
| 1777510513 | 26.67° C | 15% | 1014.1 hPa | 0 mm | - | 53 W/m² | - |
| 1777510209 | 26.67° C | 15% | 1013.8 hPa | 0 mm | - | 65 W/m² | - |
| 1777509905 | 26.67° C | 15% | 1013.8 hPa | 0 mm | - | 73 W/m² | - |
| 1777509601 | 27.22° C | 15% | 1013.6 hPa | 0 mm | - | 98 W/m² | - |
| 1777509297 | 27.22° C | 15% | 1013.8 hPa | 0 mm | - | 97 W/m² | - |
| 1777508995 | 27.22° C | 15% | 1013.4 hPa | 0 mm | - | 112 W/m² | - |
| 1777508692 | 27.22° C | 14% | 1013.6 hPa | 0 mm | - | 86 W/m² | - |
| 1777508389 | 27.22° C | 14% | 1013.5 hPa | 0 mm | - | 112 W/m² | - |
| 1777508086 | 27.22° C | 14% | 1013.7 hPa | 0 mm | - | 113 W/m² | - |
| 1777507783 | 27.78° C | 14% | 1013.8 hPa | 0 mm | - | 151 W/m² | - |
| 1777507479 | 27.22° C | 14% | 1013.7 hPa | 0 mm | - | 145 W/m² | - |
| 1777507176 | 27.22° C | 14% | 1013.8 hPa | 0 mm | - | 101 W/m² | - |
| 1777506874 | 27.78° C | 14% | 1013.8 hPa | 0 mm | - | 108 W/m² | - |
| 1777506571 | 27.78° C | 14% | 1014.1 hPa | 0 mm | - | 132 W/m² | - |
| 1777506267 | 27.78° C | 14% | 1013.9 hPa | 0 mm | - | 133 W/m² | - |
* Rain latest hour (hover to see other rain measurements)
** Current wind speed in m/s (hover to see current wind gust speed)